Temp
15 15 15 15 14 15 15 15 15 15 16 16 16 16 16 16 16 16 16 15 14 14 14 14 14 14 14 15 16 17 17 17 17 17 17 17 17 17 17 17 17 17 17 17 17 16 16 16 16 16 16 16 16 16 16 15 15 15 15 15 15 15 15 15 15 15 15 15 15
14 14 14 14 14 15 15 15 15 16 16 16 16 16 16 16 16 16 15 14 14 14 14 14 13 14 14 15 16 16 16 16 16 16 17 17 17 17 17 17 17 17 17 16 16 16 16 16 15 15 15 15 15 15 15 15 15 15 15 15 15 15 15 15 15 15 15 15 15
14 14 14 14 14 15 15 15 15 15 15 15 15 15 15 15 15 15 14 14 14 14 13 13 13 13 14 14 15 15 16 16 16 16 16 17 17 17 16 16 16 16 16 16 16 16 15 15 15 15 15 15 15 15 14 14 14 14 15 15 14 14 14 14 14 14 14 14 14
14 14 14 14 15 15 15 15 15 15 15 15 15 15 15 14 14 14 14 14 14 14 13 13 13 13 13 14 14 15 15 16 16 16 16 16 16 16 15 15 15 15 15 15 15 15 15 14 14 14 14 14 14 14 14 14 14 14 14 14 14 14 14 14 14 14 14 14 14
14 14 14 14 14 14 14 15 15 15 15 15 15 14 14 14 14 14 14 14 14 14 14 13 13 13 13 13 14 14 15 15 16 16 16 15 15 15 14 14 14 14 14 14 14 14 14 14 14 14 14 14 14 14 14 14 14 14 14 14 14 14 13 13 13 13 13 13 13
14 14 14 14 14 14 14 14 14 14 14 14 14 14 14 14 14 14 14 14 13 13 14 14 13 13 13 13 13 14 14 15 15 15 15 14 14 14 14 13 13 13 13 13 13 13 13 13 14 14 14 14 14 13 13 13 13 13 13 13 13 13 13 12 12 12 12 12 12
14 14 14 14 14 14 14 14 14 14 14 14 14 14 14 14 14 14 14 14 13 13 14 14 13 13 13 13 13 13 14 14 14 14 14 14 14 13 13 13 13 13 13 13 13 13 13 13 13 13 13 13 13 13 13 13 12 12 12 12 12 12 12 11 11 11 12 12 12
14 14 14 14 14 14 14 14 14 14 14 14 14 14 14 14 14 14 14 14 14 14 14 14 13 13 13 13 13 13 13 13 13 13 13 13 13 13 13 13 13 13 12 13 13 13 13 13 13 13 13 13 12 12 12 12 12 11 12 12 11 11 11 11 11 11 11 11 11
14 14 14 14 14 14 14 14 14 14 14 14 14 14 14 14 14 14 14 14 14 14 14 14 13 13 13 13 13 13 13 13 13 13 13 13 13 13 13 13 12 12 12 12 12 12 12 13 13 12 12 12 12 12 11 11 11 11 11 11 11 11 11 11 11 11 11 11 11
14 14 14 14 14 14 14 14 14 14 14 13 13 13 13 14 14 14 14 14 14 14 14 14 13 13 13 12 12 12 13 13 13 13 13 13 13 13 13 12 12 12 12 12 12 12 12 12 12 12 12 12 12 11 11 11 11 11 11 11 11 11 11 11 11 11 11 11 11
14 14 14 14 14 14 14 14 14 14 14 13 13 13 13 13 13 13 13 13 13 14 14 13 13 12 12 12 12 12 12 13 13 13 13 12 12 12 12 12 12 12 12 12 12 11 12 12 12 12 12 11 11 11 11 11 11 11 11 11 10 10 10 10 10 10 10 10 10
14 14 14 14 13 13 13 14 14 14 13 13 13 13 13 13 13 13 13 13 13 13 13 13 12 12 12 12 12 12 12 12 12 12 12 12 12 12 12 12 12 12 12 11 11 11 11 11 11 11 11 11 11 11 11 10 10 10 10 10 10 10 10 10 9 9 9 8 8
13 13 13 13 13 13 13 13 13 13 13 13 13 13 13 13 13 12 12 12 12 12 12 12 12 12 12 12 12 11 11 11 11 11 11 11 12 12 12 12 12 12 12 11 11 11 11 11 11 11 11 11 10 10 10 10 10 10 10 9 9 9 9 9 8 8 7 7 7
13 13 13 13 13 13 13 13 13 13 13 13 13 13 12 12 12 12 12 12 12 12 12 11 11 11 11 11 11 11 11 11 10 10 11 11 11 11 11 12 12 12 12 12 12 11 11 11 11 10 10 10 10 10 10 10 10 9 9 9 9 8 8 8 7 7 7 7 7
13 13 13 13 13 13 13 13 13 13 13 13 13 12 12 12 12 12 12 12 12 12 11 11 11 11 11 11 11 11 11 11 10 10 10 10 11 11 11 11 11 11 11 11 11 11 11 11 10 10 10 10 10 9 9 9 9 9 9 8 8 8 7 7 7 7 6 6 6
12 12 12 12 13 13 13 13 13 13 12 12 12 12 12 12 12 12 12 12 11 11 11 11 11 11 11 11 11 11 11 11 10 9 10 10 10 10 10 10 10 10 10 11 11 10 10 10 10 10 10 9 9 9 8 8 8 8 8 8 8 7 7 6 6 6 6 6 6
12 11 12 12 12 12 13 13 13 12 12 12 12 12 12 11 12 12 12 12 11 11 11 11 11 10 10 10 11 11 11 10 9 9 9 9 9 9 9 9 9 9 10 10 10 10 9 9 9 9 9 9 8 8 8 8 8 8 7 7 7 6 6 6 6 5 5 5 5
11 11 11 11 12 12 12 12 12 12 12 12 12 12 12 12 12 12 12 11 11 11 11 10 10 10 10 10 10 10 10 9 9 9 9 9 9 9 9 9 9 9 9 9 9 9 9 9 9 9 8 8 8 8 8 7 7 7 7 7 6 6 6 6 5 5 5 5 5
11 11 11 11 11 12 12 12 12 11 11 11 11 11 11 11 11 11 11 10 10 10 10 10 9 9 10 10 9 9 9 9 9 8 8 8 8 8 9 9 8 8 9 9 9 9 9 9 8 8 8 8 8 7 7 7 7 7 7 6 6 6 5 5 5 5 5 5 5
11 11 11 11 11 11 11 11 11 11 11 11 11 11 11 10 10 10 10 9 9 10 10 9 9 9 9 9 9 9 9 9 9 9 8 8 8 8 8 8 8 8 8 9 9 9 8 8 8 8 8 7 7 7 7 7 7 6 6 6 6 5 5 5 5 4 4 5 5
11 11 11 11 11 11 11 11 11 10 10 10 10 10 10 9 9 9 9 9 9 9 9 9 9 9 9 9 9 9 9 9 9 9 8 8 8 8 8 8 8 8 8 8 8 8 8 8 8 7 7 7 7 7 7 6 6 6 6 6 5 4 4 4 4 4 4 4 5
10 10 10 10 10 10 10 10 10 10 10 10 10 9 9 9 9 8 8 8 9 9 9 9 9 9 9 9 8 8 8 8 8 8 8 8 8 8 8 8 8 8 8 8 8 8 8 7 7 7 7 7 7 6 6 6 5 5 5 5 4 4 4 4 4 4 4 4 5
10 10 10 10 10 10 10 10 10 10 10 10 9 9 9 9 8 8 8 8 8 9 9 9 9 9 8 8 8 8 8 8 8 8 8 8 8 8 8 8 7 7 7 7 7 7 7 7 7 7 7 6 6 6 5 5 5 4 4 4 4 4 4 4 4 4 4 4 4
10 10 10 10 10 10 10 10 10 10 9 9 9 9 9 8 8 8 8 8 9 9 9 8 8 8 8 8 8 8 8 7 7 7 7 8 8 7 7 7 7 7 7 7 7 7 7 7 7 6 6 6 6 5 5 4 4 4 4 4 4 4 4 4 4 4 4 4 4
10 10 9 9 9 9 9 9 9 9 9 9 8 8 8 8 8 8 9 9 9 9 9 8 8 8 8 8 7 7 7 7 7 7 7 7 7 7 7 7 7 7 7 7 7 7 6 6 6 6 5 5 5 5 4 4 4 4 4 4 4 4 4 4 4 4 4 4 4
9 9 9 9 9 9 9 9 9 8 8 8 8 8 8 8 8 8 9 9 8 8 8 8 8 8 7 7 7 7 7 7 7 7 7 7 7 7 7 7 7 7 6 6 6 6 6 5 5 4 4 4 5 4 4 4 4 4 3 3 3 4 4 4 4 4 4 4 4
9 9 9 8 8 8 8 8 8 8 7 7 7 8 8 8 8 8 8 8 8 8 8 8 7 7 7 7 7 6 6 6 6 6 6 6 6 6 6 6 6 6 6 6 6 5 5 4 4 4 4 4 4 4 4 3 3 3 3 3 3 3 3 3 4 4 4 4 4
8 8 8 8 8 8 8 8 8 7 7 7 7 7 7 8 8 8 8 8 7 7 7 7 7 7 6 6 6 5 5 5 6 6 5 5 6 6 6 6 6 6 6 5 5 5 4 4 4 4 3 3 3 3 3 3 3 3 3 3 3 3 3 3 3 3 3 4 4
8 8 8 8 8 8 7 8 8 8 8 8 8 8 8 7 7 7 7 7 7 7 7 7 6 6 6 5 5 4 5 5 5 5 5 5 5 5 5 5 5 5 5 5 5 4 4 4 3 3 3 3 3 3 3 3 2 2 2 2 2 3 3 3 3 3 3 3 3
8 8 8 8 8 8 8 8 8 8 8 8 8 8 8 7 7 7 7 6 6 6 6 6 6 6 5 4 4 4 4 4 4 4 4 4 4 4 4 4 5 5 5 4 4 4 3 3 3 3 3 3 3 2 2 2 2 2 2 2 2 2 2 2 2 3 3 3 3
9 9 9 8 8 8 8 8 8 8 8 8 8 8 7 7 7 6 6 6 6 5 5 5 5 5 4 4 4 4 4 4 4 4 4 4 4 4 4 4 4 4 4 4 4 3 3 3 3 3 3 3 2 2 2 2 2 1 2 2 2 2 2 2 2 2 2 2 3
9 9 9 9 8 8 8 8 8 8 7 7 7 7 7 7 7 6 6 5 5 5 5 5 5 4 4 4 4 4 4 4 3 3 3 3 4 4 4 4 4 4 4 4 3 3 3 3 3 3 2 2 2 2 2 1 1 1 2 2 2 2 2 2 2 2 2 2 3
9 9 9 8 8 8 8 7 7 7 7 7 7 7 6 6 6 5 5 5 5 5 5 5 4 4 4 4 4 4 3 3 3 3 3 3 3 4 3 3 4 4 4 3 3 3 3 3 3 2 2 2 2 1 1 1 1 2 2 2 2 2 2 2 2 2 2 2 2
9 9 9 8 8 8 7 7 7 7 6 6 6 6 5 5 5 4 4 4 4 4 4 4 4 4 4 4 4 3 3 3 3 3 3 3 3 3 3 3 4 4 3 3 3 3 2 2 2 2 2 2 1 1 1 1 1 2 2 2 2 2 2 2 2 2 2 2 2
9 9 8 8 8 7 7 7 6 6 6 6 5 5 5 4 4 4 4 4 4 4 4 4 4 4 4 4 4 3 3 3 3 2 2 2 3 3 3 3 3 3 3 3 3 2 2 2 2 2 2 1 1 1 1 1 2 2 2 2 2 2 2 2 2 2 2 2 2
8 8 8 8 7 7 7 6 6 6 5 5 5 5 4 4 4 4 4 4 4 4 4 4 4 4 4 3 3 3 3 3 2 2 2 2 2 3 3 3 3 3 3 3 3 3 2 2 2 2 2 1 1 1 1 1 2 1 1 1 1 1 2 2 2 2 2 2 2
8 8 7 7 7 7 6 6 6 5 5 5 5 5 4 4 4 4 4 4 4 4 3 4 4 4 3 3 3 3 3 3 3 3 2 2 3 3 3 3 3 3 3 3 3 3 2 2 2 2 2 1 1 1 1 1 1 1 1 1 1 1 1 2 2 2 2 2 2
7 7 7 7 7 7 6 6 6 5 5 5 5 5 4 4 4 4 4 4 3 3 3 3 3 3 3 3 3 3 3 3 3 3 3 3 3 3 3 3 3 3 3 3 3 2 2 2 2 2 2 1 1 1 1 1 1 1 1 1 1 1 1 2 2 2 2 2 2
7 7 7 7 7 6 6 6 6 5 5 5 5 4 4 4 4 4 4 4 3 3 3 3 3 3 3 3 3 3 3 3 3 3 3 3 3 3 3 3 3 3 3 3 3 2 2 2 2 2 2 1 1 1 1 1 1 1 1 1 1 1 1 1 2 2 2 2 2
6 7 7 7 7 6 6 6 6 6 5 5 5 4 4 4 4 4 4 4 4 3 3 3 3 3 3 3 3 3 3 3 3 3 3 3 3 3 3 2 2 2 2 2 2 2 2 2 2 2 2 1 1 1 1 1 1 1 1 1 1 2 2 2 1 1 2 2 2
6 6 6 6 6 6 6 6 6 6 5 5 5 5 4 4 4 4 4 4 4 4 3 3 3 3 3 3 3 3 3 3 3 3 3 3 3 2 2 2 2 2 2 2 2 2 2 2 2 2 2 1 1 1 1 1 1 1 2 2 2 2 2 2 2 1 1 1 1
Height
783 783 784 785 787 788 790 790 791 792 792 793 792 792 791 790 791 793 797 801 803 804 804 804 804 804 803 802 801 802 805 806 808 809 810 811 811 812 813 814 815 815 816 817 818 819 819 820 820 821 822 822 823 823 824 825 825 825 826 826 827 827 827 828 828 828 828 829 829
782 783 784 785 787 788 789 790 790 791 791 791 791 790 791 792 794 797 800 804 805 804 804 804 804 804 803 802 802 802 804 806 808 809 810 810 811 812 813 814 814 815 816 816 817 818 819 819 820 820 821 821 822 822 823 823 824 825 825 825 826 826 826 827 827 827 827 827 828
782 783 784 785 786 787 788 789 790 790 790 791 791 791 793 794 796 799 801 803 804 804 804 804 805 805 805 804 803 803 804 805 807 808 809 810 810 811 812 813 814 815 815 816 817 817 818 819 819 820 820 820 821 821 822 822 823 824 824 824 825 825 825 825 825 826 826 826 826
781 782 784 785 785 787 788 788 789 790 790 791 792 793 794 796 797 799 800 802 803 803 804 805 807 807 807 806 805 804 805 805 806 807 808 809 810 811 812 813 814 814 815 815 816 817 817 818 819 819 820 820 820 821 821 822 822 823 823 823 824 824 824 824 825 825 825 825 825
781 782 783 784 786 787 788 789 790 790 790 791 793 794 795 797 798 799 800 801 802 803 804 806 807 808 808 807 806 805 805 805 806 807 808 809 810 811 812 813 813 813 814 815 815 816 817 817 818 819 820 820 820 820 821 821 821 822 822 822 823 823 823 823 823 824 824 824 824
781 782 784 785 787 788 789 790 790 791 791 792 793 795 796 797 798 799 800 801 802 803 804 806 807 808 808 808 807 806 805 805 806 806 807 808 810 811 812 812 813 813 813 814 814 815 816 817 818 818 819 819 820 820 820 820 821 821 821 821 822 822 822 822 822 822 823 823 823
781 782 784 785 787 788 789 790 790 791 792 792 794 795 795 796 797 798 800 800 802 803 804 806 807 808 808 808 808 807 806 805 806 807 808 809 810 810 811 812 813 814 814 814 814 815 816 817 817 818 818 819 819 819 819 820 820 820 820 820 820 821 821 821 821 821 821 822 822
780 782 783 784 785 786 788 789 790 791 792 793 793 794 795 795 796 797 799 800 801 802 804 805 807 807 808 808 808 807 806 806 806 807 808 809 810 810 811 813 814 815 815 814 814 815 815 816 817 817 818 818 818 818 819 819 819 819 819 820 820 820 820 820 820 820 820 820 820
780 781 782 783 784 785 787 789 790 791 792 793 793 793 794 794 795 796 797 799 800 801 803 804 805 806 807 807 807 807 807 807 807 808 808 809 810 810 812 813 814 815 814 814 814 815 815 816 816 816 817 817 817 817 818 818 818 818 818 818 819 819 819 819 819 819 819 819 819
778 780 781 782 783 785 786 788 790 791 792 793 793 793 793 794 795 795 796 797 798 800 802 803 804 805 806 807 807 807 807 807 807 808 809 809 810 810 812 813 814 814 814 814 814 815 815 815 815 815 816 816 816 816 816 817 817 817 817 817 817 817 817 817 817 817 817 817 818
777 779 780 781 783 784 785 787 789 791 792 793 793 793 793 793 794 795 795 796 797 798 800 802 803 805 805 806 807 807 807 807 807 808 808 809 810 810 811 812 813 813 814 814 814 815 815 815 815 815 815 815 815 815 815 816 816 816 816 816 816 816 816 816 816 816 816 816 816
776 778 780 781 782 784 785 786 788 790 791 792 792 792 792 792 793 794 794 795 795 797 798 800 802 803 805 805 806 806 806 807 807 808 808 809 809 810 811 812 812 813 813 814 814 814 814 814 814 814 814 814 815 815 815 815 815 815 815 815 815 815 815 815 815 815 815 815 815
776 777 779 780 782 783 784 785 786 788 790 790 791 791 791 791 792 792 793 794 795 796 798 800 801 803 804 805 805 805 806 807 808 808 809 809 809 810 811 811 812 812 813 813 813 813 813 813 813 814 814 814 814 814 814 814 814 814 814 814 814 814 814 814 814 814 814 814 814
775 776 778 779 781 782 782 783 785 787 789 790 790 790 790 790 791 792 792 793 795 796 798 800 801 802 803 803 804 805 805 807 808 809 809 810 810 810 810 811 811 811 812 812 812 812 812 812 813 813 813 812 813 813 813 813 813 813 813 813 813 813 813 813 813 813 813 813 814
774 775 777 778 779 780 780 781 784 786 788 789 790 790 790 790 791 792 793 794 795 796 798 799 801 802 802 803 803 804 805 807 808 809 810 810 810 810 810 810 810 810 810 810 810 810 811 812 812 812 811 811 812 812 812 812 812 812 812 812 812 812 812 812 812 812 812 812 812
773 774 775 777 778 779 779 780 783 785 787 788 789 789 790 790 791 793 794 795 795 796 797 799 800 801 802 802 803 803 805 806 808 810 810 810 810 809 809 809 809 809 809 809 809 809 810 810 811 811 811 811 811 811 811 812 812 812 812 811 811 811 811 811 811 811 811 811 811
772 774 775 776 777 778 778 778 781 784 786 787 788 789 790 790 791 793 794 795 795 796 797 798 800 800 801 802 803 803 805 807 809 810 810 810 809 809 809 809 809 808 808 808 808 808 809 809 810 810 810 810 811 811 811 811 811 811 811 811 811 810 810 810 810 810 810 810 810
771 773 774 775 776 777 777 777 780 783 785 786 787 789 790 790 790 791 793 795 795 796 797 798 799 800 801 802 802 803 805 807 809 810 810 810 809 808 808 808 809 808 808 807 807 808 808 809 809 810 810 810 810 810 811 811 811 811 810 810 810 810 810 810 810 810 810 810 810
771 772 774 775 775 776 776 777 780 782 784 785 787 788 789 790 790 791 792 794 795 795 796 797 798 799 800 801 802 803 805 807 809 810 810 810 809 809 809 809 809 809 808 807 807 807 808 808 809 809 810 810 810 810 810 810 810 810 810 810 810 810 810 810 809 809 809 809 809
771 772 773 774 775 775 776 778 780 782 784 785 786 787 788 789 790 791 792 793 794 795 795 796 797 798 799 800 802 803 805 807 808 809 809 809 809 809 809 809 809 808 808 807 807 807 808 808 809 809 809 809 809 809 809 809 809 809 809 809 809 809 809 809 809 809 809 809 808
771 772 773 774 775 776 777 778 780 782 783 784 785 787 788 789 790 791 792 793 794 794 795 795 796 797 799 800 802 804 805 807 807 808 808 807 807 808 808 809 808 808 807 807 807 807 808 808 808 809 809 808 808 808 808 808 808 808 808 808 808 808 809 808 808 808 808 808 808
772 773 773 774 775 776 777 779 780 781 782 784 785 786 788 790 791 792 792 793 793 793 793 794 795 797 799 800 803 804 806 807 807 807 807 806 806 807 807 808 808 807 807 807 807 807 808 808 808 808 808 808 807 807 807 807 807 807 808 808 808 808 808 808 808 808 808 807 807
773 774 774 774 775 776 778 779 780 781 782 783 785 787 788 790 790 791 792 792 793 793 793 794 796 797 799 801 802 804 805 806 807 806 806 806 806 806 807 807 807 807 807 807 807 807 807 807 807 807 807 807 806 806 806 806 806 807 807 807 808 808 808 808 808 807 807 807 807
774 775 775 775 775 776 777 779 780 780 782 783 785 786 788 789 790 790 791 791 792 792 793 795 796 798 799 801 802 803 805 805 805 805 805 805 805 806 806 807 807 807 806 806 807 807 807 807 806 806 806 806 806 805 805 805 806 806 806 807 807 807 807 807 807 807 806 806 806
775 776 776 775 776 776 777 778 779 780 781 783 785 786 787 788 789 789 789 790 791 792 793 795 796 798 799 800 801 803 804 804 804 804 804 805 805 805 806 806 806 806 806 806 806 806 806 806 805 805 805 805 805 805 805 805 805 806 806 806 806 806 806 806 806 806 806 805 805
775 776 777 777 777 777 778 779 780 780 782 783 784 785 786 787 787 788 788 789 790 792 793 795 796 797 798 800 801 802 802 803 803 803 804 804 805 805 805 805 805 805 805 805 805 805 805 805 805 805 805 805 805 805 805 805 805 805 805 805 805 805 805 805 805 805 805 805 804
775 776 777 778 778 778 779 779 780 781 782 783 784 785 785 786 786 787 788 789 790 791 793 794 795 797 798 799 800 800 801 802 802 803 803 804 804 804 804 804 804 804 804 804 805 805 805 805 805 805 804 804 805 805 805 805 805 805 805 805 805 805 804 804 804 804 804 803 803
776 777 778 778 779 779 780 780 780 781 782 782 783 784 785 785 786 787 788 789 790 791 792 794 795 796 797 798 799 800 800 801 801 802 802 803 803 803 803 803 803 803 803 804 804 804 804 805 805 804 804 804 805 805 805 805 805 804 804 804 804 804 804 803 803 803 802 802 802
776 777 778 779 779 780 780 780 780 780 781 782 783 784 785 785 786 787 788 789 790 791 792 793 794 795 796 797 798 799 799 800 800 801 801 801 801 801 802 802 802 802 803 803 804 804 804 804 804 804 804 804 804 804 804 804 804 804 804 803 803 803 803 802 802 802 801 801 801
776 777 778 778 779 779 780 780 780 780 780 781 782 784 785 785 786 787 788 789 790 790 791 792 793 794 795 796 797 798 798 799 799 800 800 800 800 801 801 801 801 802 802 803 803 804 804 804 804 804 804 804 804 804 803 803 803 803 803 803 802 802 802 801 801 801 800 800 800
775 776 777 778 778 779 779 779 780 780 781 782 783 784 784 785 785 786 787 788 789 790 790 791 792 793 794 795 796 797 797 798 798 798 799 799 800 800 800 801 801 802 802 803 803 803 804 804 804 804 803 803 803 803 803 803 803 803 803 802 802 801 801 800 800 800 800 800 799
775 776 777 777 778 778 779 780 780 781 782 782 783 783 784 784 785 785 786 787 788 789 790 791 792 793 794 794 795 796 796 797 797 798 798 799 800 800 800 801 801 802 802 802 803 803 803 803 803 803 803 803 803 803 803 803 803 802 802 802 801 800 800 800 800 799 799 799 799
776 776 777 778 778 779 780 780 781 781 782 783 783 783 784 784 785 785 786 787 788 789 790 791 792 792 793 794 795 795 796 796 797 798 798 799 799 800 800 801 801 801 802 802 802 802 802 802 802 802 802 802 802 802 802 802 802 802 801 801 800 800 800 799 799 799 798 798 798
776 777 778 778 779 780 780 781 781 782 782 783 783 784 784 785 785 786 787 788 789 790 790 791 792 792 793 794 795 795 796 797 797 798 798 798 799 800 800 800 800 801 801 801 801 802 802 802 802 802 801 801 801 802 802 802 801 801 801 800 800 800 799 799 798 798 798 798 797
777 778 779 779 780 780 781 781 782 782 783 783 784 784 785 785 786 786 787 788 789 790 790 791 792 793 793 794 795 795 796 796 797 797 798 798 798 799 799 800 800 800 800 800 801 801 801 801 801 801 801 801 801 801 801 801 801 801 800 800 800 799 799 798 798 797 797 797 797
779 779 780 780 781 781 782 782 782 783 783 784 784 785 785 786 786 787 788 788 789 790 790 791 792 792 793 794 795 795 795 796 796 797 797 797 798 798 798 799 799 799 800 800 800 800 800 800 800 800 800 800 800 801 800 800 800 800 800 800 799 798 798 797 797 797 796 796 796
780 781 781 782 782 782 783 783 783 784 784 784 785 785 785 786 787 787 788 788 789 790 790 791 791 792 793 793 794 795 795 795 796 796 796 796 797 797 798 798 798 799 799 799 799 799 800 800 800 800 800 800 800 800 800 800 800 799 799 799 798 798 797 797 796 796 796 796 796
781 782 782 783 783 783 783 783 784 784 784 785 785 785 786 786 787 787 788 788 789 789 790 790 791 792 792 793 794 794 795 795 795 796 796 796 796 797 797 798 798 798 798 798 799 799 799 799 800 800 800 800 800 800 799 799 799 798 798 798 797 797 796 796 796 796 796 796 796
782 783 783 783 783 783 783 783 784 784 784 784 785 785 786 786 786 787 788 788 789 789 790 790 791 792 792 793 794 794 795 795 795 796 796 796 796 796 797 797 797 797 798 798 798 798 798 799 799 799 799 799 799 799 798 798 798 797 797 797 796 796 796 796 795 795 795 795 796
783 783 783 783 783 783 783 783 783 783 784 784 785 785 785 786 786 787 788 788 789 789 790 790 791 792 792 793 794 794 795 795 795 795 796 796 796 796 796 796 796 797 797 797 797 797 797 798 798 798 798 798 798 798 797 797 796 796 796 796 796 796 796 795 795 795 795 795 795
783 783 783 783 783 783 783 783 783 783 783 784 784 785 785 786 786 787 787 788 789 789 790 790 791 791 792 793 793 794 794 795 795 795 795 795 795 795 795 795 796 796 796 796 796 796 796 797 797 797 797 797 797 796 796 796 795 795 795 795 795 795 795 795 795 795 795 795 795
Wind_Speed
20 21 21 20 17 15 14 13 13 13 13 13 14 16 17 17 18 18 19 22 24 23 21 21 21 21 21 20 18 17 17 16 16 16 15 14 13 12 12 11 11 11 11 12 13 14 14 15 15 15 14 14 13 13 12 12 11 11 11 11 10 10 10 9 9 9 9 8 8
18 18 18 17 15 14 13 13 13 13 13 13 13 14 15 17 18 19 21 24 25 23 23 23 23 22 21 20 18 17 16 16 16 15 14 13 13 12 12 12 11 11 12 13 13 14 15 16 15 15 14 14 13 13 13 12 12 12 11 11 10 10 9 9 9 8 8 8 8
16 16 16 15 13 12 12 12 13 13 12 12 12 12 13 14 16 19 23 26 25 22 20 22 23 22 20 20 20 19 17 16 16 15 14 14 14 14 14 14 13 13 13 14 14 15 15 15 14 14 14 14 13 13 13 13 12 11 11 10 10 10 9 9 8 8 8 7 7
14 13 12 11 10 11 11 12 12 11 11 10 9 9 9 11 15 19 22 24 22 20 19 21 22 22 22 22 21 20 19 17 16 15 15 15 16 16 16 15 15 15 15 15 15 15 14 14 13 13 13 13 13 13 12 12 11 11 10 10 9 9 8 8 8 7 7 7 7
11 10 10 10 10 11 11 10 10 9 9 8 6 7 9 12 14 16 18 18 18 17 18 21 23 23 22 22 21 20 19 17 17 17 17 18 18 17 17 17 16 16 16 15 15 14 14 13 13 13 13 13 12 12 11 10 10 9 9 9 8 8 8 8 8 8 8 8 8
11 10 10 11 12 12 10 9 8 7 8 8 8 9 11 13 13 13 13 13 14 15 16 19 22 23 22 21 21 20 19 17 17 18 19 19 19 18 17 16 15 15 15 15 14 14 13 13 13 12 12 12 11 11 10 9 9 9 8 8 8 8 7 7 7 7 8 8 9
11 11 12 12 12 11 10 9 7 6 8 9 11 12 14 14 13 12 11 11 12 13 14 17 19 22 22 20 19 19 18 17 17 18 18 19 18 17 15 14 13 13 13 13 13 12 12 11 11 11 11 10 10 9 9 8 8 8 8 7 7 7 6 6 6 7 7 8 9
11 11 11 11 11 11 10 10 8 7 8 11 13 15 16 16 15 13 12 11 11 12 13 15 18 20 19 17 18 17 16 16 17 17 17 17 16 15 13 13 13 13 12 11 11 11 10 10 10 10 9 9 8 8 7 7 6 6 7 6 6 6 6 6 6 7 8 8 9
11 11 11 11 11 11 11 11 10 9 8 10 13 14 16 17 17 15 14 13 12 11 12 14 18 19 18 16 17 16 16 16 16 16 15 14 14 13 13 13 13 12 10 10 9 9 9 9 8 8 8 7 6 6 5 5 5 5 6 6 6 6 7 7 8 8 9 10 10
13 12 11 10 11 11 12 12 11 10 9 10 11 12 13 14 15 15 15 14 13 12 13 15 18 19 18 17 17 16 16 16 15 15 13 12 12 12 12 11 10 9 8 8 7 7 6 6 6 6 6 5 5 5 5 5 5 5 6 6 6 7 7 8 9 9 10 10 10
14 13 11 11 12 13 13 13 12 11 10 10 11 11 12 13 14 15 16 16 16 16 17 18 19 19 19 18 17 16 15 15 14 13 12 11 10 10 9 8 7 6 6 6 6 5 5 4 4 4 4 4 4 4 4 5 5 6 6 6 6 6 7 8 8 9 9 9 9
15 14 13 13 15 15 15 14 13 12 12 11 10 10 11 13 15 16 17 18 19 20 20 21 21 20 19 18 16 14 13 12 11 11 10 10 9 8 7 7 6 5 5 5 4 4 3 3 3 3 3 3 4 4 5 5 5 5 6 6 6 6 6 6 7 8 8 8 7
17 16 15 15 17 17 16 15 14 13 12 12 11 11 12 14 17 19 20 22 22 23 23 22 21 20 18 16 14 12 10 9 8 7 7 7 7 7 6 6 5 5 4 4 4 3 3 3 3 3 3 3 3 4 4 4 5 5 5 5 5 5 5 5 6 7 7 7 6
17 17 17 17 18 18 16 14 14 13 13 13 13 13 14 17 19 21 23 24 24 23 23 21 19 17 15 13 11 9 8 7 5 5 5 6 6 6 6 6 6 6 5 5 4 3 3 3 4 3 2 2 2 2 3 3 4 4 4 5 5 5 5 6 6 6 7 7 7
18 18 18 19 19 18 16 14 14 14 14 15 15 16 18 20 21 22 23 23 23 22 20 18 16 14 12 10 9 7 5 4 4 5 6 6 7 7 7 7 7 6 5 4 4 3 3 3 2 1 1 1 2 2 3 4 4 5 5 6 6 6 6 7 7 7 7 8 8
19 20 21 21 20 18 16 15 15 16 17 18 19 20 21 22 22 21 21 21 20 18 16 14 13 11 10 8 7 5 4 4 6 7 8 8 8 8 7 7 6 5 5 4 3 3 3 2 2 2 2 3 3 4 4 5 5 5 5 6 6 6 6 7 7 7 8 9 9
20 22 23 23 21 19 18 18 18 19 21 22 23 23 23 23 22 20 18 17 16 15 14 12 11 10 9 8 6 5 4 5 7 9 9 9 8 8 7 6 6 5 5 4 4 5 5 5 4 4 4 4 4 4 4 4 4 5 5 5 5 6 6 6 7 7 7 8 8
21 22 23 23 22 22 21 22 22 24 25 25 25 24 23 22 21 19 17 14 13 13 13 12 11 9 9 8 7 6 5 5 7 8 8 8 7 7 6 6 5 6 6 6 6 6 6 6 5 4 4 4 3 3 3 3 3 4 4 4 5 5 5 6 6 6 7 7 7
22 23 23 24 24 24 25 26 27 27 27 26 25 24 22 20 20 19 18 16 14 13 13 13 11 10 8 7 7 6 5 5 6 7 7 7 7 6 6 6 6 6 7 7 7 6 6 5 4 3 3 2 2 2 2 2 2 3 3 4 4 5 5 5 6 7 7 7 7
24 25 24 25 25 26 27 28 28 28 27 26 24 23 22 21 20 20 20 19 16 14 12 12 11 10 8 6 6 5 5 6 7 8 8 7 7 7 7 7 7 7 6 6 6 5 5 4 3 2 1 1 1 1 2 2 2 2 3 3 4 5 5 6 6 6 7 7 7
25 25 26 26 27 27 28 28 28 28 26 25 24 23 22 21 21 20 20 18 16 14 12 11 10 9 8 7 6 6 7 8 9 9 9 9 8 8 7 7 6 6 6 5 5 4 3 2 1 1 0 1 1 1 1 2 2 2 3 3 4 5 5 5 5 5 5 6 6
25 25 26 27 28 28 28 28 27 26 25 24 22 21 21 20 20 19 17 16 15 14 13 11 10 9 9 8 8 8 9 10 10 10 9 9 9 8 7 6 6 6 5 5 4 3 2 1 1 1 1 1 1 1 1 2 2 2 2 3 4 4 4 4 4 4 4 4 5
25 25 26 27 27 28 28 27 26 25 24 22 21 20 20 19 18 17 16 15 14 13 13 12 11 11 10 10 9 10 10 11 10 10 9 8 8 8 7 7 6 6 5 4 3 2 1 1 1 1 1 1 1 1 2 2 3 3 3 3 3 3 4 4 4 4 4 4 4
24 24 25 26 26 27 26 26 25 24 23 22 21 21 20 19 18 17 16 15 14 13 13 12 12 11 11 10 10 10 10 10 10 9 9 8 8 7 7 7 6 5 5 4 3 2 2 2 1 1 1 1 1 2 2 3 3 4 5 5 5 4 4 5 5 5 5 5 5
22 23 23 24 25 25 25 25 25 24 24 23 22 20 19 18 17 16 15 14 13 12 12 11 11 10 10 9 9 9 9 9 9 8 8 8 8 7 7 6 6 5 4 3 3 2 2 1 0 1 1 2 2 2 3 4 4 5 6 6 6 6 5 6 6 6 6 7 6
21 21 22 23 24 25 25 25 25 24 23 22 21 19 18 16 15 14 13 12 12 11 11 10 10 10 9 9 10 10 10 9 8 8 8 8 8 7 7 6 5 4 4 3 2 1 1 2 2 2 3 3 3 3 4 4 4 5 5 6 6 6 6 6 7 7 7 7 7
20 21 22 23 24 24 24 24 23 22 21 20 19 17 16 15 13 13 12 11 11 10 10 9 9 9 9 9 10 10 10 9 9 8 8 8 7 7 6 5 5 4 3 2 2 2 3 3 3 2 2 3 4 4 4 5 5 5 5 6 6 6 7 7 7 7 7 7 7
20 22 23 23 24 24 23 22 21 20 19 17 16 14 13 12 11 11 10 10 9 9 9 8 8 7 8 9 9 10 10 10 9 8 8 8 7 6 5 5 4 4 3 3 3 3 3 3 2 1 1 3 4 4 5 5 5 5 5 6 6 7 7 8 8 8 7 7 7
21 22 23 23 22 22 21 20 18 17 15 13 12 10 9 8 8 7 7 7 7 7 7 7 6 6 7 9 9 10 10 10 9 8 8 7 6 6 5 4 4 4 4 4 4 3 3 3 2 1 1 2 3 4 4 5 5 6 6 7 7 8 8 8 8 8 7 7 6
20 20 21 20 20 19 17 16 14 13 12 10 9 7 6 4 4 3 3 4 6 7 7 7 7 8 9 9 10 10 10 9 8 8 7 7 6 6 5 5 5 5 5 5 4 4 3 2 2 1 0 1 2 3 4 5 6 6 7 7 8 8 8 8 8 7 7 6 5
17 17 17 17 16 15 14 13 11 10 9 8 6 5 3 2 1 1 2 4 6 8 8 8 8 9 9 9 9 9 9 8 7 7 6 6 6 7 6 6 6 6 5 5 5 4 3 2 2 1 1 2 3 4 4 5 6 7 7 8 8 8 8 7 7 6 5 5 4
14 14 14 14 14 13 12 11 10 8 7 5 4 3 2 2 2 2 4 5 7 8 8 8 9 9 9 9 9 8 8 7 6 5 5 5 6 7 8 7 7 7 6 5 5 4 3 2 1 1 3 3 3 3 4 5 6 6 7 7 7 7 7 6 5 5 4 4 3
12 13 13 13 13 13 12 10 9 7 5 4 3 3 3 3 4 5 6 7 8 8 8 8 8 9 9 9 8 7 7 6 5 4 4 5 7 8 8 8 8 7 6 5 4 4 3 2 1 2 3 3 3 3 4 5 6 6 6 6 6 6 6 5 4 4 3 3 2
12 12 12 13 13 12 11 9 8 6 4 3 3 3 3 4 5 7 8 9 9 8 7 7 7 8 8 8 8 7 6 5 5 4 5 7 9 9 9 8 8 7 6 5 4 3 2 2 1 1 2 3 3 4 4 5 6 6 6 7 7 7 6 5 4 3 2 2 2
12 12 13 13 12 11 10 9 7 5 4 3 3 3 3 4 6 7 8 9 9 8 7 7 7 7 8 8 7 6 6 5 5 5 7 9 10 9 8 8 7 6 5 3 3 2 2 1 1 1 2 2 3 3 5 6 6 6 7 8 8 8 7 6 4 3 2 2 2
13 13 13 13 13 12 10 8 6 5 4 4 4 5 5 5 6 7 8 8 9 8 8 7 7 8 8 8 7 6 6 6 6 6 8 9 10 9 8 8 6 5 3 2 2 1 1 1 1 1 2 3 3 4 5 6 6 6 7 8 8 8 8 7 5 4 3 2 2
14 14 14 14 14 12 10 9 7 6 6 6 6 6 7 7 7 7 8 8 8 8 8 8 8 8 8 8 7 7 6 6 6 7 8 9 10 9 8 7 6 4 3 2 1 1 1 1 1 1 2 3 4 5 6 6 6 6 7 8 9 9 9 8 6 5 4 3 2
15 15 15 15 14 13 11 10 9 8 8 7 7 7 8 8 8 8 8 8 9 9 9 9 9 8 8 8 7 7 7 7 7 8 8 9 9 9 8 7 6 4 3 2 1 1 1 1 1 1 2 3 4 5 6 6 6 6 7 8 9 9 9 9 7 6 4 3 3
15 15 15 14 14 13 12 11 11 10 9 9 8 8 8 9 10 10 9 9 9 9 10 10 10 9 9 8 8 7 7 7 7 8 8 9 9 9 8 7 6 4 3 2 2 2 2 2 2 2 3 4 4 5 6 6 6 6 7 8 8 9 9 9 8 6 5 4 4
14 14 14 14 14 14 13 13 12 11 10 10 9 9 9 10 11 10 9 9 9 10 11 11 10 10 9 8 8 7 7 7 8 8 8 8 8 8 7 6 6 5 4 3 2 2 2 2 2 2 3 4 4 5 6 7 7 6 6 7 8 8 9 8 8 6 5 4 4
15 14 14 14 14 15 14 14 12 12 11 11 10 9 9 10 11 11 10 10 10 10 11 11 10 10 9 8 8 7 7 7 7 8 8 8 8 8 7 6 5 4 3 3 2 2 2 2 2 3 3 4 4 5 6 7 7 7 6 6 7 8 8 8 8 7 5 4 4
Wind_Direction
203 201 201 204 209 220 228 229 229 233 240 247 253 259 264 267 267 261 247 233 228 230 232 227 220 212 202 193 192 196 199 199 199 200 201 201 202 204 205 206 206 207 208 211 213 215 217 218 219 219 219 219 218 217 214 210 206 203 202 203 204 205 206 207 207 209 211 215 220
200 200 203 209 217 228 237 239 240 243 247 252 257 262 266 267 263 251 234 223 224 229 231 224 219 210 199 189 186 186 189 190 191 191 192 193 196 199 200 200 202 205 208 211 212 214 215 216 215 213 209 207 203 199 195 192 190 188 188 190 191 191 192 193 195 198 201 207 213
192 196 201 207 218 230 240 244 245 248 253 259 261 261 259 253 241 228 220 219 224 228 227 220 216 209 199 192 186 182 181 183 184 185 187 189 192 194 195 195 197 200 204 206 208 209 210 209 207 202 196 191 188 184 182 181 181 181 181 183 185 187 190 194 198 203 208 215 221
187 192 196 201 211 226 237 243 246 248 252 258 260 254 240 227 217 213 214 218 223 223 219 214 212 208 203 199 192 184 180 180 182 184 186 187 188 187 188 188 189 191 194 196 197 198 197 195 192 189 185 182 180 179 179 179 180 181 184 187 191 195 201 207 214 220 226 232 238
187 191 195 197 204 215 227 234 239 242 245 248 245 230 217 211 208 208 211 215 217 215 212 210 209 208 206 204 198 189 181 179 181 182 182 182 180 180 180 181 181 182 183 184 185 184 183 181 181 180 179 179 180 181 182 184 186 189 193 199 203 209 214 220 226 230 235 240 246
195 197 197 197 202 208 214 217 221 225 229 231 225 215 208 205 204 204 206 208 210 209 207 208 209 210 210 208 202 195 186 177 176 176 176 174 174 175 175 174 175 175 175 175 175 174 175 177 179 179 180 181 183 185 187 191 195 200 204 208 213 217 221 225 229 234 238 242 247
200 198 196 196 200 206 210 212 215 217 220 223 222 215 208 203 200 200 203 206 207 206 205 207 212 214 213 208 200 192 183 174 171 171 171 171 171 172 174 178 183 183 182 178 175 175 178 183 187 187 188 189 190 191 193 196 202 208 210 211 217 222 225 231 239 244 248 251 254
198 197 195 195 201 207 212 217 223 225 221 219 217 212 208 206 204 202 202 205 207 206 207 210 215 214 209 199 192 184 175 169 168 170 171 171 172 175 181 189 194 193 188 182 179 180 184 189 193 193 191 192 192 194 197 202 210 216 219 220 227 234 243 251 259 263 265 266 266
199 199 199 200 205 209 213 217 224 225 217 208 205 204 204 205 204 201 198 200 205 208 211 213 213 208 199 186 180 175 170 169 168 168 170 172 173 178 186 195 196 192 184 179 177 180 184 187 189 189 188 189 191 197 205 214 224 234 239 244 250 259 266 270 274 277 278 277 276
194 195 194 195 199 203 205 208 215 214 202 186 183 185 189 193 195 195 195 197 201 205 208 208 205 197 187 179 175 172 171 170 170 168 167 167 168 173 180 186 187 180 173 171 173 175 178 183 183 186 192 201 207 216 229 241 249 257 264 269 274 279 282 283 285 285 286 285 283
183 183 183 184 187 190 193 195 199 198 189 173 168 169 174 180 186 189 191 192 192 193 195 197 193 186 180 177 175 174 172 172 171 169 166 163 163 163 166 168 168 167 166 166 169 174 181 188 193 199 209 223 232 242 253 263 268 273 279 284 286 289 291 292 293 294 295 295 294
171 171 173 176 179 182 184 186 190 192 191 184 180 176 176 178 182 184 185 185 183 182 182 182 180 178 177 176 173 170 167 165 164 164 163 161 159 159 161 163 166 168 171 172 178 186 198 209 220 225 233 245 256 262 268 275 279 283 286 290 293 294 297 302 305 307 307 308 309
162 165 169 172 176 179 182 185 189 193 195 196 194 188 182 178 180 181 181 180 177 174 171 169 170 170 170 168 162 155 149 146 148 152 154 155 156 160 165 169 176 183 190 195 201 211 227 243 250 249 249 259 268 274 279 286 291 294 298 302 306 310 316 322 323 322 320 321 322
160 165 170 173 176 180 183 185 188 190 191 191 191 186 179 174 174 175 174 171 168 164 160 159 160 160 159 156 150 142 134 132 137 147 154 157 160 165 172 178 186 193 199 203 211 225 242 250 253 253 258 272 289 300 308 314 318 321 325 329 333 337 340 339 334 330 328 330 329
161 166 171 175 178 180 182 183 184 185 183 179 177 174 168 164 164 164 163 160 156 153 152 151 151 150 149 148 147 146 145 145 158 172 175 172 171 173 177 181 184 188 192 195 201 211 217 218 222 238 301 352 3 4 2 360 355 351 347 346 345 347 347 344 337 333 331 331 330
162 164 168 172 176 179 178 177 178 177 173 168 165 163 159 154 153 153 153 149 146 145 145 144 142 139 137 138 144 152 163 177 187 190 189 184 182 181 181 179 177 174 174 174 171 166 157 145 112 79 61 52 44 36 28 20 13 7 1 355 350 350 348 345 339 336 332 328 327
162 162 164 167 171 173 172 169 169 167 163 159 157 155 153 148 147 147 148 147 144 142 139 136 133 130 128 128 132 138 153 175 185 186 184 181 181 179 178 173 165 157 150 145 136 126 115 100 88 77 67 60 52 44 35 26 19 14 9 3 358 355 352 348 342 336 331 327 323
159 159 160 161 162 163 162 160 159 157 155 153 152 153 152 150 148 147 147 147 146 143 139 135 132 129 128 126 126 131 145 166 176 176 171 168 168 169 168 165 156 146 137 130 122 114 103 93 84 77 71 63 55 45 34 23 16 12 10 7 2 358 353 348 341 334 329 323 319
152 153 154 155 154 153 152 151 151 151 150 150 151 151 152 151 150 147 144 143 143 142 139 136 133 130 127 126 128 137 155 178 186 184 176 167 163 162 162 159 153 144 134 126 118 110 102 95 90 86 79 66 51 34 19 6 359 0 3 4 359 354 348 343 337 331 326 322 317
148 148 149 149 149 148 148 148 149 149 149 149 149 149 149 148 148 145 143 141 141 140 138 135 132 129 128 130 139 154 174 193 202 199 190 179 170 164 161 158 152 144 135 125 117 110 106 104 103 100 83 49 25 7 352 341 339 350 2 4 358 351 343 337 331 326 323 321 319
147 147 147 148 147 147 147 148 148 148 147 146 145 144 144 144 143 142 140 139 139 137 134 131 129 130 134 142 153 167 181 193 198 195 189 182 175 171 167 163 156 146 136 127 121 118 117 118 118 105 23 342 338 334 331 330 337 355 7 9 360 352 345 334 324 319 318 318 318
149 149 149 148 147 147 146 146 146 145 144 142 141 140 140 140 139 138 136 135 134 132 129 128 130 135 142 150 160 171 180 187 188 186 183 181 178 176 174 170 162 154 145 138 137 137 144 159 194 246 277 295 306 307 307 313 327 344 353 355 349 352 350 335 328 325 324 319 314
150 149 148 147 146 145 145 144 143 141 140 138 139 139 139 138 136 134 132 130 127 125 125 127 132 139 145 152 161 171 179 182 181 179 176 175 174 173 173 171 169 164 160 157 161 172 193 215 225 232 241 269 305 314 308 309 318 325 326 322 321 330 336 332 338 346 347 332 319
147 147 146 143 143 143 143 142 141 139 138 138 140 140 140 137 135 132 129 126 124 123 125 130 136 142 148 155 163 171 176 178 175 172 170 168 168 169 171 174 176 176 175 176 184 197 208 212 205 208 246 301 329 324 321 327 333 330 324 317 311 310 313 318 329 338 341 338 331
143 143 142 142 141 141 141 141 140 139 139 139 140 139 138 135 133 131 128 127 126 128 132 137 144 149 154 159 163 168 171 172 170 167 166 165 168 172 176 182 185 187 187 190 195 200 204 198 96 12 352 339 338 339 344 349 347 340 333 327 322 316 312 313 315 318 321 325 328
141 142 142 143 142 141 141 140 139 138 137 137 137 135 133 131 130 129 128 128 130 133 138 143 148 153 156 160 163 165 166 166 167 166 166 169 173 179 185 191 194 195 193 191 189 173 120 71 48 18 350 338 341 350 357 359 353 346 341 338 335 331 325 318 313 309 309 312 318
141 142 143 144 143 141 139 138 136 134 133 133 131 130 128 128 128 129 129 130 132 136 140 145 149 153 159 164 167 167 164 162 164 166 171 176 181 185 190 195 198 196 190 183 168 130 98 81 70 36 346 334 341 350 356 355 351 348 346 345 343 340 335 328 321 315 312 311 312
142 143 143 143 141 139 137 135 133 131 130 129 127 125 126 128 130 132 133 134 136 140 144 148 153 160 167 170 169 166 162 160 164 170 177 182 186 189 193 198 198 192 182 170 152 126 108 99 90 66 346 335 340 345 349 349 347 346 344 344 342 339 337 333 329 325 320 316 313
142 142 142 141 138 136 134 133 131 129 128 127 126 126 128 130 134 137 141 144 146 148 152 158 166 171 170 165 164 161 159 161 168 176 181 183 184 188 192 195 191 183 173 161 147 132 118 110 103 93 21 335 334 336 337 339 341 342 342 341 339 335 332 331 329 326 322 316 312
141 141 141 139 136 134 131 129 128 127 127 128 129 130 131 132 135 144 153 155 153 154 158 164 168 166 162 161 160 160 162 167 176 183 185 184 181 179 181 184 179 172 165 156 146 136 125 117 113 119 148 295 314 321 327 335 342 345 345 341 338 333 330 327 325 323 319 314 310
140 141 139 137 134 132 130 129 127 127 127 128 128 129 127 119 115 127 143 146 150 153 158 163 164 161 159 161 162 165 170 177 184 191 196 197 187 176 170 170 167 163 157 150 143 136 129 124 127 178 241 268 294 314 330 344 352 352 349 344 340 336 333 329 325 320 315 312 311
141 141 140 138 135 133 132 132 132 131 129 126 120 108 90 84 95 114 129 139 146 152 158 163 164 163 163 165 168 172 178 184 192 201 208 206 189 172 163 161 160 157 152 146 139 133 127 126 155 243 262 273 291 319 343 355 357 354 351 350 349 346 343 338 331 322 314 311 316
145 145 144 141 138 136 136 137 137 136 133 119 96 74 72 86 105 121 131 140 146 153 160 167 171 173 174 176 178 182 186 194 204 212 207 186 167 157 153 155 157 154 148 142 136 130 126 130 169 255 276 291 317 349 360 356 353 354 360 6 7 4 359 351 343 331 319 313 323
151 151 149 147 143 142 141 141 142 141 132 107 83 74 83 102 118 129 137 144 150 156 161 169 177 183 186 188 188 189 191 198 205 200 177 159 151 148 149 153 154 151 146 140 136 131 130 137 182 255 288 315 345 356 352 343 348 1 14 20 19 17 12 6 357 343 326 317 329
157 158 156 153 150 149 149 149 150 146 131 110 101 106 118 128 136 142 147 152 157 160 162 164 169 174 178 179 181 182 185 188 191 181 165 155 151 149 150 154 152 149 145 141 138 134 136 144 199 260 290 316 335 335 331 334 351 9 20 21 20 18 17 14 8 356 338 323 332
163 163 161 158 157 157 158 159 158 151 139 131 135 145 152 154 154 155 157 161 166 169 169 165 164 165 167 169 172 178 185 188 188 178 167 159 156 154 153 153 152 149 146 146 145 143 141 149 198 263 287 301 311 316 320 332 353 11 19 18 16 15 16 15 12 4 348 330 324
168 168 166 164 163 163 165 167 165 160 154 152 157 164 168 169 168 167 168 171 175 178 178 176 172 171 172 174 177 185 195 201 194 184 174 165 160 155 151 153 154 154 156 168 176 166 155 149 182 247 276 290 301 309 318 332 352 9 15 14 13 14 14 15 13 7 353 330 313
171 172 172 171 171 171 173 174 173 169 165 163 166 171 177 179 179 178 178 181 182 184 185 185 182 181 182 184 187 194 202 203 195 187 179 171 164 157 153 155 158 163 172 188 199 190 173 166 181 229 264 278 295 308 319 333 348 2 10 11 12 12 13 13 12 8 356 334 310
176 178 179 179 180 181 181 181 179 177 174 171 171 174 182 187 188 186 185 187 188 188 188 187 186 187 188 190 191 194 197 197 191 185 179 173 168 163 161 160 165 173 184 196 206 201 184 174 181 223 259 276 293 310 321 330 341 355 5 9 10 10 11 11 11 7 359 340 314
182 185 187 189 189 189 188 187 186 185 183 180 177 178 182 187 189 188 187 189 191 190 187 186 186 188 190 191 189 188 189 190 187 184 180 176 173 171 170 169 173 181 191 199 209 215 201 183 182 218 258 278 294 309 318 326 334 347 360 8 8 8 8 9 8 6 359 344 322
184 189 194 198 199 198 196 194 194 194 193 188 184 181 180 181 182 184 186 188 189 187 185 184 185 188 190 190 188 186 186 187 187 188 188 185 184 182 181 179 181 188 195 204 217 236 238 219 200 214 246 278 289 301 311 321 329 340 353 3 6 5 3 4 5 3 358 347 327